W0WFX Weather Reports


time (UTC)temp
C
wind
direction
speed
KPH
gust
KPH
rain 1hr
cm
rain 24hr
cm
rain mn
cm
humidity
%
barometer
mb
20260504234834 26 0.0 0.0 0.00 0.00 0.00 53 988.5
20260504234319 27 0.0 0.0 0.00 0.00 0.00 53 988.6
20260504233850 27 0.0 0.0 0.00 0.00 0.00 53 988.6
20260504233314 27 0.0 0.0 0.00 0.00 0.00 53 988.6
20260504232825 27 0.0 0.0 0.00 0.00 0.00 54 988.8
20260504232329 27 0.0 0.0 0.00 0.00 0.00 55 988.8
20260504231815 27 0.0 0.0 0.00 0.00 0.00 55 988.8
20260504231327 27 0.0 0.0 0.00 0.00 0.00 55 988.8
20260504230830 26 0.0 0.0 0.00 0.00 0.00 54 988.8
20260504230344 27 0.0 0.0 0.00 0.00 0.00 53 988.8
20260504225827 27 0.0 0.0 0.00 0.00 0.00 53 988.6
20260504225333 27 0.0 0.0 0.00 0.00 0.00 51 988.6
20260504224825 27 0.0 0.0 0.00 0.00 0.00 54 988.6
20260504224330 27 0.0 0.0 0.00 0.00 0.00 52 988.7
20260504223816 27 0.0 0.0 0.00 0.00 0.00 52 988.7
20260504223328 27 0.0 0.0 0.00 0.00 0.00 53 988.7
20260504222818 27 0.0 0.0 0.00 0.00 0.00 51 988.5
20260504222325 27 0.0 0.0 0.00 0.00 0.00 55 988.5
20260504221832 27 0.0 0.0 0.00 0.00 0.00 53 988.5
20260504221321 27 0.0 0.0 0.00 0.00 0.00 52 988.5
20260504220827 27 0.0 0.0 0.00 0.00 0.00 50 988.5
20260504220314 27 0.0 0.0 0.00 0.00 0.00 49 988.5
20260504215825 27 0.0 0.0 0.00 0.00 0.00 51 988.7
20260504215332 27 0.0 0.0 0.00 0.00 0.00 51 988.7
20260504214816 27 0.0 0.0 0.00 0.00 0.00 53 988.7
20260504214329 27 0.0 0.0 0.00 0.00 0.00 52 988.9
20260504213815 27 0.0 0.0 0.00 0.00 0.00 52 988.9
20260504213321 27 0.0 0.0 0.00 0.00 0.00 51 988.9
20260504212833 27 0.0 0.0 0.00 0.00 0.00 53 988.9
20260504212317 27 0.0 0.0 0.00 0.00 0.00 52 988.9
20260504211819 27 0.0 0.0 0.00 0.00 0.00 50 988.9
20260504211331 28 0.0 0.0 0.00 0.00 0.00 52 988.9
20260504210817 28 0.0 0.0 0.00 0.00 0.00 50 988.9
20260504210320 28 0.0 0.0 0.00 0.00 0.00 53 988.9
20260504205831 27 0.0 0.0 0.00 0.00 0.00 51 989.0
20260504205337 28 0.0 0.0 0.00 0.00 0.00 52 989.0
20260504204828 28 0.0 0.0 0.00 0.00 0.00 52 989.0
20260504204330 28 0.0 0.0 0.00 0.00 0.00 55 989.1
20260504203820 27 0.0 0.0 0.00 0.00 0.00 51 989.1
20260504203326 27 0.0 0.0 0.00 0.00 0.00 52 989.1
20260504202837 27 0.0 0.0 0.00 0.00 0.00 51 989.2
20260504202341 27 0.0 0.0 0.00 0.00 0.00 54 989.2
20260504201830 27 0.0 0.0 0.00 0.00 0.00 54 989.2
20260504201317 27 0.0 0.0 0.00 0.00 0.00 52 989.3
20260504200823 27 0.0 0.0 0.00 0.00 0.00 53 989.3
20260504200334 27 0.0 0.0 0.00 0.00 0.00 52 989.3
20260504195818 27 0.0 0.0 0.00 0.00 0.00 53 989.5
20260504195324 27 0.0 0.0 0.00 0.00 0.00 53 989.5
20260504194830 27 0.0 0.0 0.00 0.00 0.00 54 989.5
20260504194317 27 0.0 0.0 0.00 0.00 0.00 54 989.6
20260504193828 27 0.0 0.0 0.00 0.00 0.00 53 989.6
20260504193332 27 0.0 0.0 0.00 0.00 0.00 53 989.6
20260504192818 27 0.0 0.0 0.00 0.00 0.00 53 989.8
20260504192331 27 0.0 0.0 0.00 0.00 0.00 51 989.8
20260504191816 26 0.0 0.0 0.00 0.00 0.00 53 989.8
20260504191322 27 0.0 0.0 0.00 0.00 0.00 51 989.8
20260504190828 27 0.0 0.0 0.00 0.00 0.00 55 989.8
20260504190313 26 0.0 0.0 0.00 0.00 0.00 53 989.8
20260504185825 26 0.0 0.0 0.00 0.00 0.00 53 989.7
20260504185331 26 0.0 0.0 0.00 0.00 0.00 58 989.7
20260504184817 25 0.0 0.0 0.00 0.00 0.00 55 989.7
20260504184329 26 0.0 0.0 0.00 0.00 0.00 53 990.0
20260504183814 26 0.0 0.0 0.00 0.00 0.00 52 990.0
20260504183328 26 0.0 0.0 0.00 0.00 0.00 54 990.0
20260504182812 25 0.0 0.0 0.00 0.00 0.00 57 990.1
20260504182319 26 0.0 0.0 0.00 0.00 0.00 57 990.1
20260504181824 26 0.0 0.0 0.00 0.00 0.00 54 990.1
20260504181337 26 0.0 0.0 0.00 0.00 0.00 57 990.1
20260504180822 25 0.0 0.0 0.00 0.00 0.00 55 990.1
20260504180326 25 0.0 0.0 0.00 0.00 0.00 54 990.1
20260504175818 25 0.0 0.0 0.00 0.00 0.00 56 990.1
20260504175324 26 0.0 0.0 0.00 0.00 0.00 58 990.1
20260504174853 25 0.0 0.0 0.00 0.00 0.00 57 990.1
20260504174318 25 0.0 0.0 0.00 0.00 0.00 55 990.3
20260504173844 25 0.0 0.0 0.00 0.00 0.00 59 990.3
20260504173316 25 0.0 0.0 0.00 0.00 0.00 58 990.3
20260504172821 25 0.0 0.0 0.00 0.00 0.00 57 990.4
20260504172325 25 0.0 0.0 0.00 0.00 0.00 59 990.4
20260504171837 25 0.0 0.0 0.00 0.00 0.00 55 990.4
20260504171320 24 0.0 0.0 0.00 0.00 0.00 59 990.5
20260504170830 24 0.0 0.0 0.00 0.00 0.00 57 990.5
20260504170335 24 0.0 0.0 0.00 0.00 0.00 57 990.5
20260504160321 22 0.0 0.0 0.00 0.00 0.00 60 990.7
20260504150829 20 0.0 0.0 0.00 0.00 0.00 60 991.2
20260504150315 20 0.0 0.0 0.00 0.00 0.00 60 991.2
20260504141330 20 0.0 0.0 0.00 0.00 0.00 58 991.2
20260504140816 20 0.0 0.0 0.00 0.00 0.00 58 991.2
20260504140322 21 0.0 0.0 0.00 0.00 0.00 58 991.2
20260504130335 18 0.0 0.0 0.00 0.00 0.00 63 991.4
20260504120318 17 0.0 0.0 0.00 0.00 0.00 61 991.6
20260504110333 17 0.0 0.0 0.00 0.00 0.00 60 991.3
20260504100343 18 0.0 0.0 0.00 0.00 0.00 59 992.2
20260504081825 17 0.0 0.0 0.00 0.00 0.00 64 992.9
20260504081329 17 0.0 0.0 0.00 0.00 0.00 65 993.0
20260504080815 17 0.0 0.0 0.00 0.00 0.00 65 993.0
20260504080321 17 0.0 0.0 0.00 0.00 0.00 65 993.0
20260504070314 17 0.0 0.0 0.00 0.00 0.00 66 993.9
20260504050323 17 0.0 0.0 0.00 0.00 0.00 71 993.9
20260504045828 18 0.0 0.0 0.00 0.00 0.03 72 994.0
20260504045340 18 0.0 0.0 0.00 0.00 0.03 72 994.0
20260504044846 18 0.0 0.0 0.00 0.00 0.03 72 994.0
20260504044311 18 0.0 0.0 0.00 0.00 0.03 72 994.0
20260504043824 18 0.0 0.0 0.00 0.00 0.03 72 994.0
20260504043329 18 0.0 0.0 0.00 0.00 0.03 72 994.0
20260504042841 18 0.0 0.0 0.00 0.00 0.03 72 994.1
20260504042325 18 0.0 0.0 0.00 0.00 0.03 72 994.1
20260504041832 18 0.0 0.0 0.00 0.00 0.03 72 994.1
20260504041344 18 0.0 0.0 0.00 0.00 0.03 71 994.3
20260504040828 18 0.0 0.0 0.00 0.00 0.03 71 994.3
20260504040334 18 0.0 0.0 0.00 0.00 0.03 71 994.3
20260504035825 18 0.0 0.0 0.00 0.00 0.03 70 994.4
20260504035328 18 0.0 0.0 0.00 0.00 0.03 70 994.4
20260504034813 18 0.0 0.0 0.00 0.00 0.03 70 994.4
20260504034345 18 0.0 0.0 0.00 0.00 0.03 70 994.5
20260504033825 18 0.0 0.0 0.00 0.00 0.03 70 994.5
20260504033316 19 0.0 0.0 0.00 0.00 0.03 70 994.5
20260504032849 19 0.0 0.0 0.00 0.00 0.03 69 994.7
20260504032314 19 0.0 0.0 0.00 0.00 0.03 69 994.7
20260504031820 19 0.0 0.0 0.00 0.00 0.03 68 994.7
20260504031348 19 0.0 0.0 0.00 0.00 0.03 69 994.6
20260504030815 19 0.0 0.0 0.00 0.00 0.03 68 994.6
20260504030319 19 0.0 0.0 0.00 0.00 0.03 68 994.6
20260504025830 19 0.0 0.0 0.00 0.00 0.03 69 994.7
20260504025317 19 0.0 0.0 0.00 0.00 0.03 68 994.7
20260504024822 19 0.0 0.0 0.00 0.00 0.03 68 994.7
20260504024313 19 0.0 0.0 0.00 0.00 0.03 68 994.7
20260504023817 19 0.0 0.0 0.00 0.00 0.03 68 994.7
20260504023328 19 0.0 0.0 0.00 0.00 0.03 67 994.7
20260504022813 19 0.0 0.0 0.00 0.00 0.03 67 994.8
20260504022338 19 0.0 0.0 0.00 0.00 0.03 66 994.8
20260504021828 20 0.0 0.0 0.00 0.00 0.03 66 994.8
20260504021314 20 0.0 0.0 0.00 0.00 0.03 65 994.9
20260504020847 20 0.0 0.0 0.00 0.00 0.03 64 994.9
20260504020332 20 0.0 0.0 0.00 0.00 0.03 63 994.9
20260504015818 20 0.0 0.0 0.00 0.00 0.03 62 994.8
20260504015324 20 0.0 0.0 0.00 0.00 0.03 62 994.8
20260504014835 20 0.0 0.0 0.00 0.00 0.03 61 994.8
20260504014321 20 0.0 0.0 0.00 0.00 0.03 61 994.8
20260504013832 20 0.0 0.0 0.00 0.00 0.03 60 994.8
20260504013319 21 0.0 0.0 0.00 0.00 0.03 59 994.8
20260504012824 21 0.0 0.0 0.00 0.00 0.03 60 994.9
20260504012336 21 0.0 0.0 0.00 0.00 0.03 60 994.9
20260504011817 21 0.0 0.0 0.00 0.00 0.03 59 994.9
20260504011324 21 0.0 0.0 0.00 0.00 0.03 58 994.8
20260504010815 21 0.0 0.0 0.00 0.00 0.03 58 994.8
20260504010321 21 0.0 0.0 0.00 0.00 0.03 57 994.8
20260504005833 22 0.0 0.0 0.00 0.00 0.03 56 994.8
20260504005319 22 0.0 0.0 0.00 0.00 0.03 55 994.8
20260504004851 22 0.0 0.0 0.00 0.00 0.03 55 994.8
20260504004315 22 0.0 0.0 0.00 0.00 0.03 54 994.9
20260504003822 22 0.0 0.0 0.00 0.00 0.03 54 994.9
20260504003355 23 0.0 0.0 0.00 0.00 0.03 53 994.9
20260504002819 23 0.0 0.0 0.00 0.00 0.03 53 995.1
20260504002331 23 0.0 0.0 0.00 0.00 0.03 53 995.1
20260504001816 23 0.0 0.0 0.00 0.00 0.03 51 995.1
20260504001323 23 0.0 0.0 0.00 0.00 0.03 51 995.0
20260504000833 24 0.0 0.0 0.00 0.00 0.03 50 995.0
20260504000318 25 0.0 0.0 0.00 0.00 0.03 50 995.0
20260503235824 25 0.0 0.0 0.00 0.00 0.03 49 995.1
20260503235337 25 0.0 0.0 0.00 0.00 0.03 48 995.1